Regional Weather Roundup
Issued by NWS Bismarck, ND

Home | Current Version | Previous Version | Text Only | Print | Product List | Glossary On
Versions: 1 2 3 4 5 6 7 8 9 10 11 12 13 14 15 16 17 18 19 20 21 22 23 24 25 26 27 28 29 30 31 32 33 34 35 36 37 38 39 40 41 42 43 44 45 46 47 48 49 50
000
ASUS43 KBIS 011410
RWRBIS

NWR BROADCAST TEXT
NATIONAL WEATHER SERVICE BISMARCK ND
900 AM CDT TUE SEP 01 2015

NOTE: "FAIR" INDICATES FEW OR NO CLOUDS BELOW 12,000 FEET WITH NO
SIGNIFICANT WEATHER AND/OR OBSTRUCTIONS TO VISIBILITY.


CITY           SKY/WX    TMP DP  RH WIND       PRES   REMARKS
WILLISTON      SUNNY     57  48  72 CALM      29.83S
MINOT          SUNNY     65  50  58 S9        29.83S
MINOT AFB      SUNNY     63  53  69 S3        29.81F
BISMARCK       SUNNY     59  53  80 E5        29.89S
DICKINSON      SUNNY     66  57  72 S8        29.85F
GARRISON         N/A     63  55  75 S5        29.87S
HETTINGER ARPT SUNNY     62  56  80 SE3       29.89S
JAMESTOWN      SUNNY     63  57  81 S8        29.88S
CROSBY         FAIR      59  46  63 S9        29.82S
HARVEY         FAIR      63  57  82 S6        29.87F
HAZEN          FAIR      55  50  82 NE3       29.88S
LINTON         FAIR      64  63  94 SE7       29.88F
OAKES            N/A     64  64 100 CALM      29.89S
RUGBY          FAIR      59  54  82 S7        29.85S
STANLEY        FAIR      57  55  94 S3        29.86R
$$

CITY           SKY/WX    TMP DP  RH WIND       PRES   REMARKS
GRAND FORKS    SUNNY     63  54  72 SE7       29.86S
GRAND FORKS AF SUNNY     66  55  66 SW5       29.86F
DEVILS LAKE    SUNNY     68  52  56 S10       29.86S
FARGO          SUNNY     67  62  84 CALM      29.88F
CAVALIER       FAIR      64  52  63 SW6       29.84S
GRAFTON        FAIR      61  55  82 S5        29.86S
GWINNER          N/A     66  66 100 E3        29.90S
LANGDON        FAIR      63  52  67 S8        29.87S
ROLLA          FAIR      63  50  63 SW3       29.86F
WALHALLA       FAIR      68  50  52 MISG      29.83F
$$

CITY           SKY/WX    TMP DP  RH WIND       PRES   REMARKS
ABERDEEN       SUNNY     68  63  84 E7        29.88S
MOBRIDGE       SUNNY     67  63  87 SE6       29.86S
BUFFALO          N/A     60  57  89 S3        29.83R
RAPID CITY     SUNNY     63  56  78 NW9       29.88S
GLASGOW        SUNNY     56  42  59 E12       29.78F
SIDNEY         SUNNY     54  46  76 CALM      29.83S
WOLF POINT     SUNNY     52  44  74 E5        29.81F
GLENDIVE       SUNNY     61  48  63 CALM      29.86S
MILES CITY     SUNNY     60  54  80 SE7       29.84S
BAKER          SUNNY     64  57  78 SE7       29.87F
$$

CITY           SKY/WX    TMP DP  RH WIND       PRES   REMARKS
BILLINGS       MOSUNNY   56  37  49 W6        29.90R
GREAT FALLS    PTSUNNY   65  40  39 SW16      29.84R
REGINA         PTSUNNY   57  52  82 SW3       29.75F
ESTEVAN        MOSUNNY   57  46  67 S3        29.82S
$$



USA.gov is the U.S. government's official web portal to all federal, state and local government web resources and services.